Waarnemingen

Advertentie
Mijn weer
Terschelling/Hoorn, Nederland (6251): temperatuur & dauwpunt: 19.02.2018 20:00:00 - 25.02.2018 20:00:00 (CET)Terschelling/Hoorn, Nederland (6251): temperatuur 5cm: 19.02.2018 20:00:00 - 25.02.2018 20:00:00 (CET)Terschelling/Hoorn, Nederland (6251): windsnelheid & windstoten: 19.02.2018 20:00:00 - 25.02.2018 20:00:00 (CET)Terschelling/Hoorn, Nederland (6251): windrichting: 19.02.2018 20:00:00 - 25.02.2018 20:00:00 (CET)Terschelling/Hoorn, Nederland (6251): luchtdruk: 19.02.2018 20:00:00 - 25.02.2018 20:00:00 (CET)Terschelling/Hoorn, Nederland (6251): zicht: 19.02.2018 20:00:00 - 25.02.2018 20:00:00 (CET)Terschelling/Hoorn, Nederland (6251): neerslag: 19.02.2018 20:00:00 - 25.02.2018 20:00:00 (CET)
Datum & Tijd tt [°C] td [°C] tt 5cm [°C] ff [km/u] ff [kn] fx [km/u] fx [kn] dd ppp [hPa] vv [km] rr [mm]
25.02.2018 20:00:00 -1,9 -4,4 -2,5 32 18 43 23 O 1033,2 36 0,1
25.02.2018 19:00:00 -2,1 -3,3 -2,3 29 16 40 21 O 1033,2 11 0,0
25.02.2018 18:00:00 -2,2 -2,9 -2,2 18 10 32 18 ONO 1032,9 3,3 0,0
25.02.2018 17:00:00 -1,4 -5,1 -1,3 25 14 32 18 ONO 1032,9 13 0,0
25.02.2018 16:00:00 -0,3 -7,6 0,2 22 12 32 18 ONO 1033,1 36 0,0
25.02.2018 15:00:00 -0,1 -8,4 0,9 25 14 36 19 O 1033,2 33 0,0
25.02.2018 14:00:00 -0,8 -9,5 -0,1 25 14 32 18 ONO 1033,7 37 0,0
25.02.2018 13:00:00 -0,8 -8,1 0,9 25 14 36 19 O 1033,9 36 0,0
25.02.2018 12:00:00 -1,3 -7,6 0,2 25 14 36 19 O 1034,3 27 0,0
25.02.2018 11:00:00 -2,0 -8,5 -1,6 22 12 32 18 O 1034,3 32 0,0
25.02.2018 10:00:00 -2,8 -7,9 -3,0 25 14 36 19 O 1034,4 31 0,0
25.02.2018 09:00:00 -3,6 -8,3 -3,7 29 16 36 19 O 1034,2 39 0,0
25.02.2018 08:00:00 -3,7 -8,2 -4,3 29 16 36 19 O 1033,9 42 0,0
25.02.2018 07:00:00 -3,7 -8,3 -4,2 29 16 40 21 O 1033,4 41 0,0
25.02.2018 06:00:00 -3,3 -7,9 -3,8 32 18 43 23 O 1033,0 37 0,0
25.02.2018 05:00:00 -3,0 -7,6 -3,5 32 18 47 25 O 1032,6 32 0,0
25.02.2018 04:00:00 -2,8 -7,2 -3,2 36 19 47 25 O 1032,3 39 0,0
25.02.2018 03:00:00 -2,4 -7,4 -3,0 36 19 47 25 O 1032,5 32 0,0
25.02.2018 02:00:00 -2,2 -7,4 -2,7 36 19 50 27 O 1032,4 27 0,0
25.02.2018 01:00:00 -2,0 -7,0 -2,5 36 19 47 25 O 1032,2 28 0,0
25.02.2018 00:00:00 -1,7 -6,4 -2,3 32 18 43 23 O 1032,1 40 0,0
24.02.2018 23:00:00 -1,4 -5,7 -1,9 32 18 47 25 O 1031,8 43 0,0
24.02.2018 22:00:00 -0,9 -5,9 -1,5 36 19 47 25 O 1031,5 44 0,0
24.02.2018 21:00:00 -0,4 -4,8 -1,1 36 19 47 25 O 1031,0 35 0,0
24.02.2018 20:00:00 -0,5 -4,5 -1,1 32 18 43 23 ONO 1030,8 31 0,0
24.02.2018 19:00:00 0,0 -3,8 -0,6 29 16 43 23 ONO 1030,3 41 0,0
24.02.2018 18:00:00 0,7 -3,3 0,1 29 16 43 23 ONO 1029,9 37 0,0
24.02.2018 17:00:00 1,4 -3,1 1,2 32 18 50 27 O 1029,8 33 0,0
24.02.2018 16:00:00 1,8 -2,7 1,6 36 19 43 23 O 1029,8 31 0,0
24.02.2018 15:00:00 1,8 -2,5 2,1 29 16 43 23 O 1029,8 30 0,0
24.02.2018 14:00:00 1,0 -2,9 1,2 29 16 36 19 O 1029,9 32 0,0
24.02.2018 13:00:00 0,7 -3,2 1,1 29 16 43 23 O 1030,1 23 0,0
24.02.2018 12:00:00 0,2 -3,4 0,3 32 18 50 27 O 1030,2 28 0,0
24.02.2018 11:00:00 -0,3 -4,4 0,1 43 23 54 29 O 1030,1 22 0,0
24.02.2018 10:00:00 -0,9 -5,0 -0,6 40 21 54 29 O 1029,8 32 0,0
24.02.2018 09:00:00 -1,8 -6,7 -1,9 40 21 50 27 O 1029,5 24 0,0
24.02.2018 08:00:00 -2,3 -7,2 -2,7 36 19 50 27 O 1028,7 23 0,0
24.02.2018 07:00:00 -2,4 -7,5 -2,9 36 19 47 25 O 1028,1 26 0,0
24.02.2018 06:00:00 -2,5 -7,2 -2,9 32 18 43 23 O 1027,9 21 0,0
24.02.2018 05:00:00 -2,1 -7,6 -2,7 36 19 47 25 O 1027,4 23 0,0
24.02.2018 04:00:00 -2,0 -7,1 -2,5 36 19 50 27 O 1026,9 20 0,0
24.02.2018 03:00:00 -1,5 -6,7 -2,0 36 19 50 27 O 1026,9 20 0,0
24.02.2018 02:00:00 -1,4 -6,2 -1,9 36 19 47 25 O 1026,8 19 0,0
24.02.2018 01:00:00 -1,1 -6,0 -1,8 40 21 47 25 O 1026,5 19 0,0
24.02.2018 00:00:00 -1,2 -5,4 -1,8 36 19 50 27 O 1026,4 15 0,0
23.02.2018 23:00:00 -1,3 -4,7 -1,9 32 18 43 23 O 1026,2 13 0,0
23.02.2018 22:00:00 -0,9 -4,6 -1,5 36 19 43 23 O 1025,9 19 0,0
23.02.2018 21:00:00 -0,5 -4,3 -1,1 32 18 43 23 O 1025,8 20 0,0
23.02.2018 20:00:00 -0,5 -3,9 -1,1 29 16 40 21 ONO 1025,4 25 0,0
23.02.2018 19:00:00 -0,3 -3,8 -0,9 32 18 40 21 ONO 1025,2 27 0,0
23.02.2018 18:00:00 0,4 -3,8 -0,3 32 18 43 23 ONO 1024,9 23 0,0
23.02.2018 17:00:00 1,0 -3,8 0,9 32 18 40 21 O 1025,0 32 0,0
23.02.2018 16:00:00 1,2 -3,6 1,0 32 18 40 21 O 1025,2 21 0,0
23.02.2018 15:00:00 1,9 -1,8 2,7 29 16 32 18 ONO 1025,3 17 0,0
23.02.2018 14:00:00 1,9 -1,0 3,1 25 14 32 18 O 1025,6 13 0,0
23.02.2018 13:00:00 1,2 -1,9 2,0 25 14 36 19 O 1026,2 13 0,0
23.02.2018 12:00:00 1,6 -1,1 2,3 25 14 32 18 O 1026,5 14 0,0
23.02.2018 11:00:00 0,8 -1,5 0,6 25 14 32 18 O 1026,7 17 0,0
23.02.2018 10:00:00 0,7 -3,3 0,6 22 12 29 16 ONO 1026,6 34 0,0
23.02.2018 09:00:00 -0,2 -3,8 -0,9 22 12 25 14 ONO 1026,4 36 0,0
23.02.2018 08:00:00 -1,7 -3,8 -2,6 18 10 22 12 ONO 1026,2 22 0,0
23.02.2018 07:00:00 -1,8 -3,5 -2,7 18 10 18 10 ONO 1025,9 11 0,0
23.02.2018 06:00:00 -1,8 -3,5 -2,7 14 8 29 16 ONO 1025,8 9 0,0
23.02.2018 05:00:00 -0,2 -2,8 -1,2 25 14 29 16 O 1025,8 12 0,0
23.02.2018 04:00:00 -0,1 -2,4 -1,0 22 12 32 18 O 1025,8 7 0,0
23.02.2018 03:00:00 0,3 -1,6 -0,7 22 12 32 18 O 1026,0 7 0,0
23.02.2018 02:00:00 0,5 -2,2 -0,5 22 12 29 16 O 1026,1 14 0,0
23.02.2018 01:00:00 0,3 -0,9 -0,7 18 10 25 14 O 1026,3 4,1 0,0
23.02.2018 00:00:00 -1,7 -2,4 -4,1 11 6 14 8 ONO 1026,4 4,0 0,0
22.02.2018 23:00:00 -1,7 -2,3 -3,3 14 8 14 8 ONO 1026,5 3,0 0,0
22.02.2018 22:00:00 -1,8 -2,3 -3,5 11 6 11 6 O 1026,5 2,3 0,0
22.02.2018 21:00:00 0,2 -0,3 -0,1 7 4 22 12 OZO 1026,1 3,0 0,1
22.02.2018 20:00:00 -0,7 -1,5 -2,2 7 4 11 6 OZO 1026,1 5 0,0
22.02.2018 19:00:00 -0,2 -1,7 -3,2 4 2 11 6 NNO 1026,0 8 0,0
22.02.2018 18:00:00 1,1 -1,1 -1,3 7 4 14 8 NNO 1026,1 10 0,0
22.02.2018 17:00:00 2,7 -0,1 2,1 11 6 14 8 O 1026,3 11 0,0
22.02.2018 16:00:00 2,7 -0,4 3,1 11 6 14 8 O 1026,4 11 0,0
22.02.2018 15:00:00 2,7 -0,7 3,0 11 6 14 8 O 1026,7 12 0,0
22.02.2018 14:00:00 3,6 -0,9 4,8 11 6 14 8 OZO 1027,3 12 0,0
22.02.2018 13:00:00 2,9 -1,8 3,8 11 6 14 8 OZO 1027,7 13 0,0
22.02.2018 12:00:00 2,6 -1,4 3,9 7 4 11 6 O 1027,8 11 0,0
22.02.2018 11:00:00 2,2 -0,9 3,2 7 4 11 6 O 1028,0 10 0,0
22.02.2018 10:00:00 1,3 -0,7 1,4 7 4 11 6 ONO 1028,0 7 0,0
22.02.2018 09:00:00 -0,7 -2,2 -2,3 11 6 11 6 ONO 1027,9 8 0,0
22.02.2018 08:00:00 -2,7 -4,5 -5,6 11 6 18 10 ONO 1027,8 9 0,0
22.02.2018 07:00:00 -3,2 -4,4 -5,3 11 6 14 8 ONO 1027,6 8 0,0
22.02.2018 06:00:00 -3,2 -4,7 -5,0 14 8 14 8 ONO 1027,5 9 0,0
22.02.2018 05:00:00 -2,3 -4,2 -3,9 14 8 14 8 ONO 1027,5 11 0,0
22.02.2018 04:00:00 -2,1 -4,2 -3,2 14 8 18 10 ONO 1027,6 12 0,0
22.02.2018 03:00:00 -1,6 -3,9 -3,1 14 8 22 12 ONO 1027,7 12 0,0
22.02.2018 02:00:00 -1,3 -3,5 -3,0 14 8 22 12 O 1027,7 10 0,0
22.02.2018 01:00:00 -0,6 -2,8 -1,3 14 8 25 14 O 1028,1 12 0,0
22.02.2018 00:00:00 -1,6 -3,3 -2,7 11 6 22 12 ONO 1028,1 8 0,0
21.02.2018 23:00:00 -1,4 -2,7 -2,5 14 8 18 10 ONO 1028,0 6 0,0
21.02.2018 22:00:00 -1,9 -3,5 -3,5 14 8 18 10 ONO 1028,0 9 0,0
21.02.2018 21:00:00 -1,8 -3,7 -3,6 14 8 14 8 ONO 1027,9 10 0,0
21.02.2018 20:00:00 -1,7 -3,3 -3,2 11 6 14 8 ONO 1027,7 8 0,0
21.02.2018 19:00:00 -1,0 -2,8 -2,1 14 8 14 8 ONO 1027,3 8 0,0
21.02.2018 18:00:00 0,1 -1,8 -0,9 11 6 14 8 ONO 1026,9 9 0,0
21.02.2018 17:00:00 1,2 -1,9 0,6 11 6 25 14 NO 1026,7 12 0,0
21.02.2018 16:00:00 2,7 -2,6 2,7 18 10 25 14 NO 1026,7 16 0,0
21.02.2018 15:00:00 3,0 -1,9 3,1 14 8 22 12 NNO 1027,2 22 0,0
21.02.2018 14:00:00 3,1 -1,7 3,5 14 8 22 12 NO 1027,8 15 0,0
21.02.2018 13:00:00 3,0 -0,2 3,7 7 4 11 6 OZO 1027,9 10 0,0
21.02.2018 12:00:00 2,6 -0,4 4,0 7 4 11 6 OZO 1028,0 10 0,0
21.02.2018 11:00:00 2,2 -0,5 3,0 7 4 11 6 O 1028,0 8 0,0
21.02.2018 10:00:00 1,9 -0,4 1,7 4 2 7 4 O 1027,6 6 0,0
21.02.2018 09:00:00 -1,4 -2,6 -2,8 0 0 7 4 N 1027,4 5 0,0
21.02.2018 08:00:00 -0,6 -2,3 -3,5 4 2 14 8 NO 1027,2 8 0,0
21.02.2018 07:00:00 -1,0 -2,0 -4,1 7 4 7 4 NO 1027,0 4,7 0,0
21.02.2018 06:00:00 -1,1 -2,3 -5,0 7 4 11 6 ONO 1027,2 6 0,0
21.02.2018 05:00:00 -2,7 -3,8 -4,8 4 2 7 4 NO 1027,1 4,7 0,0
21.02.2018 04:00:00 -0,4 -2,1 -4,6 7 4 11 6 N 1027,1 6 0,0
21.02.2018 03:00:00 -1,4 -3,1 -4,5 7 4 14 8 NO 1026,6 6 0,0
21.02.2018 02:00:00 0,5 -1,7 -1,2 14 8 18 10 O 1026,2 7 0,0
21.02.2018 01:00:00 -0,7 -1,7 -2,2 11 6 18 10 ONO 1025,9 3,9 0,0
21.02.2018 00:00:00 -0,9 -2,5 -2,0 14 8 14 8 ONO 1025,8 6 0,0
20.02.2018 23:00:00 -0,7 -2,2 -1,9 14 8 18 10 ONO 1025,6 6 0,0
20.02.2018 22:00:00 0,4 -1,2 -1,1 11 6 18 10 NO 1025,3 5 0,0
20.02.2018 21:00:00 0,5 -0,8 -1,0 11 6 18 10 NO 1024,7 4,3 0,0
20.02.2018 20:00:00 0,9 -0,2 -0,4 14 8 18 10 NO 1023,9 3,1 0,0
20.02.2018 19:00:00 0,4 -0,7 -0,8 11 6 14 8 NO 1023,1 3,0 0,0
20.02.2018 18:00:00 1,0 -0,5 -0,2 11 6 14 8 NO 1022,4 4,1 0,0
20.02.2018 17:00:00 3,1 0,6 2,7 11 6 18 10 NO 1021,4 6 0,0
20.02.2018 16:00:00 4,1 1,5 4,3 11 6 14 8 ONO 1021,0 6 0,0
20.02.2018 15:00:00 3,4 1,2 3,9 11 6 14 8 O 1021,0 4,9 0,0
20.02.2018 14:00:00 3,5 1,0 4,4 11 6 14 8 O 1020,7 6 0,0
20.02.2018 13:00:00 3,0 0,7 3,7 4 2 7 4 O 1021,0 5 0,0
20.02.2018 12:00:00 2,3 0,7 2,6 7 4 11 6 O 1020,6 4,1 0,0
20.02.2018 11:00:00 1,9 0,2 1,6 7 4 11 6 OZO 1020,4 3,8 0,0
20.02.2018 10:00:00 0,6 0,4 0,3 7 4 11 6 O 1020,2 1,4 0,0
20.02.2018 09:00:00 -0,2 -0,4 -0,9 7 4 7 4 OZO 1019,9 1,5 0,0
20.02.2018 08:00:00 -0,2 -0,3 -1,5 4 2 11 6 NO 1019,8 1,4 0,0
20.02.2018 07:00:00 -0,6 -1,2 -1,3 7 4 14 8 O 1019,3 1,7 0,0
20.02.2018 06:00:00 -0,7 -1,2 -2,3 14 8 14 8 O 1019,1 2,3 0,0
20.02.2018 05:00:00 -3,3 -3,8 -5,1 7 4 7 4 ONO 1019,5 2,3 0,0
20.02.2018 04:00:00 -3,6 -4,3 -4,8 4 2 7 4 NNO 1019,7 2,2 0,0
20.02.2018 03:00:00 -2,8 -3,0 -4,8 4 2 7 4 O 1019,6 1,6 0,0
20.02.2018 02:00:00 -2,0 -2,2 -4,4 4 2 7 4 NNO 1019,4 2,4 0,0
20.02.2018 01:00:00 -0,4 -0,8 -3,9 4 2 11 6 ZZO 1019,1 4,2 0,0
20.02.2018 00:00:00 -0,5 -1,7 -3,1 7 4 14 8 OZO 1018,9 5 0,0
19.02.2018 23:00:00 0,2 -1,0 -1,6 11 6 14 8 O 1018,4 6 0,0
19.02.2018 22:00:00 -0,1 -1,1 -1,7 7 4 11 6 O 1019,0 5 0,0
19.02.2018 21:00:00 0,0 -0,6 -2,1 7 4 11 6 O 1019,1 4,8 0,0
19.02.2018 20:00:00 0,9 0,1 0,1 7 4 11 6 ZO 1018,9 5 0,0

tt = temperatuur
td = dauwpunt
tt 5cm = temperatuur 5cm
ff = windsnelheid
fx = windstoten
dd = windrichting
ppp = luchtdruk
vv = zicht
rr = neerslag

Weerstations in de omgeving